Skip Page Navigation
NASA JPL Caltech
NASA Logo - Jet Propulsion Laboratory + View the NASA Portal
+ Near-Earth Object (NEO) Program
Search JPL
JPL Home Earth Solar System Stars & Galaxies Technology
JPL Solar System Dynamics
BODIES ORBITS EPHEMERIDES TOOLS PHYSICAL DATA DISCOVERY FAQ SITE MAP
JPL Small-Body Database Browser
Search: [ help ]  
(2006 UQ17)
Classification: Apollo [NEO, PHA]          SPK-ID: 3352549
Ephemeris | Orbit Diagram | Orbital Elements | Physical Parameters | Close-Approach Data ]

[ hide orbit diagram ]
Orbit Diagram
Note: Make sure you have Java enabled on your browser to see the applet. This applet is provided as a 3D orbit visualization tool. The applet was implemented using 2-body methods, and hence should not be used for determining accurate long-term trajectories (over several years or decades) or planetary encounter circumstances. For accurate long-term ephemerides, please instead use our Horizons system.
Orbit Viewer

Additional Notes: the orbits shown in the applet are color coded. The planets are white lines, and the asteroid/comet is a blue line. The bright white line indicates the portion of the orbit that is above the ecliptic plane, and the darker portion is below the ecliptic plane. Likewise for the asteroid/comet orbit, the light blue indicates the portion above the ecliptic plane, and the dark blue the portion below the ecliptic plane.

Orbit Viewer applet originally written and kindly provided by Osamu Ajiki (AstroArts), and further modified by Ron Baalke (JPL).


Orbital Elements at Epoch 2456400.5 (2013-Apr-18.0) TDB
Reference: JPL 82 (heliocentric ecliptic J2000)
 Element Value Uncertainty (1-sigma)   Units 
e .381018626296374 4.5738e-08  
a 1.623580655352589 1.2072e-07 AU
q 1.004966184368779 9.5632e-09 AU
i 1.743899331460087 1.2999e-06 deg
node 82.11597171894465 2.1533e-05 deg
peri 10.27839999840599 2.1437e-05 deg
M 18.04911417817264 0.00012449 deg
tp 2456362.615407464143
(2013-Mar-11.11540746)
0.00025707 JED
period 755.6300646267726
2.07
8.4275e-05
2.307e-07
d
yr
n .476423605746569 5.3135e-08 deg/d
Q 2.242195126336398 1.6671e-07 AU
  Orbit Determination Parameters
   # obs. used (total)      647  
   # delay obs. used      2  
   # Doppler obs. used      1  
   data-arc span      702 days (1.92 yr)  
   first obs. used      2006-09-28  
   last obs. used      2008-08-30  
   planetary ephem.      DE405  
   SB-pert. ephem.      SB405-CPV-2  
   condition code      1  
   fit RMS      .61335  
   data source      ORB  
   producer      Otto Matic  
   solution date      2011-Sep-14 20:12:46  

Additional Information
 Earth MOID = .0214987 AU 
 T_jup = 4.237 
[ show covariance matrix ]

Ephemeris | Orbit Diagram | Orbital Elements | Physical Parameters | Close-Approach Data ]

Physical Parameter Table
Parameter Symbol Value Units Sigma Reference Notes
absolute magnitude H 21.86 mag .49124 82 autocmod 2.5a

[ show close-approach data ]
Ephemeris | Orbit Diagram | Orbital Elements | Physical Parameters | Close-Approach Data ]
ABOUT SSD CREDITS/AWARDS PRIVACY/COPYRIGHT GLOSSARY LINKS
FirstGov 2013-May-20 03:36 UT
(server date/time)  
NASA Home Page
Site Manager:   Donald K. Yeomans
Webmaster  Alan B. Chamberlin